Year,Month,Day,Hour,Minute,Value (Times are PST for temperature in C)
2010,08,23,00,00,13.30
2010,08,23,00,01,13.30
2010,08,23,00,02,13.30
2010,08,23,00,03,13.30
2010,08,23,00,04,13.30
2010,08,23,00,05,13.20
2010,08,23,00,06,13.20
2010,08,23,00,07,13.20
2010,08,23,00,08,13.20
2010,08,23,00,09,13.20
2010,08,23,00,10,13.20
2010,08,23,00,11,13.10
2010,08,23,00,12,13.10
2010,08,23,00,13,13.10
2010,08,23,00,14,13.00
2010,08,23,00,15,13.00
2010,08,23,00,16,13.00
2010,08,23,00,17,12.90
2010,08,23,00,18,12.90
2010,08,23,00,19,12.90
2010,08,23,00,20,12.80
2010,08,23,00,21,12.80
2010,08,23,00,22,12.80
2010,08,23,00,23,12.80
2010,08,23,00,24,12.80
2010,08,23,00,25,12.70
2010,08,23,00,26,12.70
2010,08,23,00,27,12.70
2010,08,23,00,28,12.60
2010,08,23,00,29,12.60
2010,08,23,00,30,12.50
2010,08,23,00,31,12.50
2010,08,23,00,32,12.40
2010,08,23,00,33,12.30
2010,08,23,00,34,12.30
2010,08,23,00,35,12.30
2010,08,23,00,36,12.20
2010,08,23,00,37,12.20
2010,08,23,00,38,12.10
2010,08,23,00,39,12.10
2010,08,23,00,40,12.00
2010,08,23,00,41,11.90
2010,08,23,00,42,11.90
2010,08,23,00,43,11.80
2010,08,23,00,44,11.80
2010,08,23,00,45,11.80
2010,08,23,00,46,11.70
2010,08,23,00,47,11.70
2010,08,23,00,48,11.60
2010,08,23,00,49,11.60
2010,08,23,00,50,11.60
2010,08,23,00,51,11.60
2010,08,23,00,52,11.50
2010,08,23,00,53,11.40
2010,08,23,00,54,11.40
2010,08,23,00,55,11.40
2010,08,23,00,56,11.40
2010,08,23,00,57,11.30
2010,08,23,00,58,11.30
2010,08,23,00,59,11.20
2010,08,23,01,00,11.20
2010,08,23,01,01,11.20
2010,08,23,01,02,11.10
2010,08,23,01,03,11.10
2010,08,23,01,04,11.10
2010,08,23,01,05,11.10
2010,08,23,01,06,11.10
2010,08,23,01,07,11.10
2010,08,23,01,08,11.00
2010,08,23,01,09,10.90
2010,08,23,01,10,10.90
2010,08,23,01,11,10.90
2010,08,23,01,12,10.90
2010,08,23,01,13,10.80
2010,08,23,01,14,10.80
2010,08,23,01,15,10.80
2010,08,23,01,16,10.80
2010,08,23,01,17,10.70
2010,08,23,01,18,10.70
2010,08,23,01,19,10.70
2010,08,23,01,20,10.70
2010,08,23,01,21,10.70
2010,08,23,01,22,10.70
2010,08,23,01,23,10.60
2010,08,23,01,24,10.60
2010,08,23,01,25,10.60
2010,08,23,01,26,10.60
2010,08,23,01,27,10.60
2010,08,23,01,28,10.50
2010,08,23,01,29,10.40
2010,08,23,01,30,10.40
2010,08,23,01,31,10.40
2010,08,23,01,32,10.40
2010,08,23,01,33,10.40
2010,08,23,01,34,10.40
2010,08,23,01,35,10.40
2010,08,23,01,36,10.40
2010,08,23,01,37,10.40
2010,08,23,01,38,10.30
2010,08,23,01,39,10.30
2010,08,23,01,40,10.30
2010,08,23,01,41,10.30
2010,08,23,01,42,10.30
2010,08,23,01,43,10.30
2010,08,23,01,44,10.30
2010,08,23,01,45,10.30
2010,08,23,01,46,10.20
2010,08,23,01,47,10.20
2010,08,23,01,48,10.20
2010,08,23,01,49,10.20
2010,08,23,01,50,10.10
2010,08,23,01,51,10.10
2010,08,23,01,52,10.10
2010,08,23,01,53,10.10
2010,08,23,01,54,10.10
2010,08,23,01,55,10.10
2010,08,23,01,56,10.00
2010,08,23,01,57,9.90
2010,08,23,01,58,9.90
2010,08,23,01,59,9.90
2010,08,23,02,00,9.90
2010,08,23,02,01,9.90
2010,08,23,02,02,9.90
2010,08,23,02,03,9.90
2010,08,23,02,04,9.90
2010,08,23,02,05,9.80
2010,08,23,02,06,9.80
2010,08,23,02,07,9.80
2010,08,23,02,08,9.80
2010,08,23,02,09,9.80
2010,08,23,02,10,9.80
2010,08,23,02,11,9.70
2010,08,23,02,12,9.70
2010,08,23,02,13,9.70
2010,08,23,02,14,9.70
2010,08,23,02,15,9.70
2010,08,23,02,16,9.70
2010,08,23,02,17,9.70
2010,08,23,02,18,9.60
2010,08,23,02,19,9.60
2010,08,23,02,20,9.60
2010,08,23,02,21,9.60
2010,08,23,02,22,9.50
2010,08,23,02,23,9.50
2010,08,23,02,24,9.50
2010,08,23,02,25,9.50
2010,08,23,02,26,9.50
2010,08,23,02,27,9.50
2010,08,23,02,28,9.50
2010,08,23,02,29,9.50
2010,08,23,02,30,9.40
2010,08,23,02,31,9.40
2010,08,23,02,32,9.40
2010,08,23,02,33,9.40
2010,08,23,02,34,9.40
2010,08,23,02,35,9.40
2010,08,23,02,36,9.30
2010,08,23,02,37,9.30
2010,08,23,02,38,9.30
2010,08,23,02,39,9.20
2010,08,23,02,40,9.20
2010,08,23,02,41,9.20
2010,08,23,02,42,9.20
2010,08,23,02,43,9.20
2010,08,23,02,44,9.20
2010,08,23,02,45,9.20
2010,08,23,02,46,9.20
2010,08,23,02,47,9.20
2010,08,23,02,48,9.10
2010,08,23,02,49,9.10
2010,08,23,02,50,9.10
2010,08,23,02,51,9.10
2010,08,23,02,52,9.10
2010,08,23,02,53,9.10
2010,08,23,02,54,9.00
2010,08,23,02,55,9.00
2010,08,23,02,56,9.00
2010,08,23,02,57,9.00
2010,08,23,02,58,9.00
2010,08,23,02,59,8.90
2010,08,23,03,00,8.90
2010,08,23,03,01,8.90
2010,08,23,03,02,8.90
2010,08,23,03,03,8.90
2010,08,23,03,04,8.80
2010,08,23,03,05,8.80
2010,08,23,03,06,8.80
2010,08,23,03,07,8.80
2010,08,23,03,08,8.80
2010,08,23,03,09,8.80
2010,08,23,03,10,8.80
2010,08,23,03,11,8.70
2010,08,23,03,12,8.70
2010,08,23,03,13,8.70
2010,08,23,03,14,8.70
2010,08,23,03,15,8.70
2010,08,23,03,16,8.70
2010,08,23,03,17,8.70
2010,08,23,03,18,8.70
2010,08,23,03,19,8.60
2010,08,23,03,20,8.60
2010,08,23,03,21,8.60
2010,08,23,03,22,8.60
2010,08,23,03,23,8.60
2010,08,23,03,24,8.60
2010,08,23,03,25,8.50
2010,08,23,03,26,8.50
2010,08,23,03,27,8.50
2010,08,23,03,28,8.50
2010,08,23,03,29,8.50
2010,08,23,03,30,8.50
2010,08,23,03,31,8.50
2010,08,23,03,32,8.50
2010,08,23,03,33,8.50
2010,08,23,03,34,8.50
2010,08,23,03,35,8.50
2010,08,23,03,36,8.50
2010,08,23,03,37,8.50
2010,08,23,03,38,8.40
2010,08,23,03,39,8.40
2010,08,23,03,40,8.40
2010,08,23,03,41,8.40
2010,08,23,03,42,8.40
2010,08,23,03,43,8.40
2010,08,23,03,44,8.40
2010,08,23,03,45,8.40
2010,08,23,03,46,8.40
2010,08,23,03,47,8.40
2010,08,23,03,48,8.40
2010,08,23,03,49,8.40
2010,08,23,03,50,8.40
2010,08,23,03,51,8.40
2010,08,23,03,52,8.40
2010,08,23,03,53,8.40
2010,08,23,03,54,8.40
2010,08,23,03,55,8.40
2010,08,23,03,56,8.40
2010,08,23,03,57,8.40
2010,08,23,03,58,8.40
2010,08,23,03,59,8.40
2010,08,23,04,00,8.40
2010,08,23,04,01,8.30
2010,08,23,04,02,8.30
2010,08,23,04,03,8.30
2010,08,23,04,04,8.30
2010,08,23,04,05,8.30
2010,08,23,04,06,8.30
2010,08,23,04,07,8.30
2010,08,23,04,08,8.20
2010,08,23,04,09,8.20
2010,08,23,04,10,8.20
2010,08,23,04,11,8.20
2010,08,23,04,12,8.20
2010,08,23,04,13,8.20
2010,08,23,04,14,8.20
2010,08,23,04,15,8.20
2010,08,23,04,16,8.20
2010,08,23,04,17,8.20
2010,08,23,04,18,8.20
2010,08,23,04,19,8.20
2010,08,23,04,20,8.20
2010,08,23,04,21,8.20
2010,08,23,04,22,8.20
2010,08,23,04,23,8.20
2010,08,23,04,24,8.20
2010,08,23,04,25,8.20
2010,08,23,04,26,8.20
2010,08,23,04,27,8.20
2010,08,23,04,28,8.20
2010,08,23,04,29,8.20
2010,08,23,04,30,8.20
2010,08,23,04,31,8.10
2010,08,23,04,32,8.10
2010,08,23,04,33,8.10
2010,08,23,04,34,8.10
2010,08,23,04,35,8.10
2010,08,23,04,36,8.10
2010,08,23,04,37,8.10
2010,08,23,04,38,8.10
2010,08,23,04,39,8.10
2010,08,23,04,40,8.10
2010,08,23,04,41,8.00
2010,08,23,04,42,8.00
2010,08,23,04,43,8.00
2010,08,23,04,44,8.00
2010,08,23,04,45,8.00
2010,08,23,04,46,8.00
2010,08,23,04,47,7.90
2010,08,23,04,48,7.90
2010,08,23,04,49,7.90
2010,08,23,04,50,7.90
2010,08,23,04,51,7.90
2010,08,23,04,52,7.90
2010,08,23,04,53,7.90
2010,08,23,04,54,7.80
2010,08,23,04,55,7.80
2010,08,23,04,56,7.80
2010,08,23,04,57,7.80
2010,08,23,04,58,7.80
2010,08,23,04,59,7.80
2010,08,23,05,00,7.80
2010,08,23,05,01,7.80
2010,08,23,05,02,7.80
2010,08,23,05,03,7.80
2010,08,23,05,04,7.80
2010,08,23,05,05,7.80
2010,08,23,05,06,7.80
2010,08,23,05,07,7.80
2010,08,23,05,08,7.80
2010,08,23,05,09,7.80
2010,08,23,05,10,7.80
2010,08,23,05,11,7.80
2010,08,23,05,12,7.80
2010,08,23,05,13,7.80
2010,08,23,05,14,7.80
2010,08,23,05,15,7.80
2010,08,23,05,16,7.80
2010,08,23,05,17,7.80
2010,08,23,05,18,7.80
2010,08,23,05,19,7.80
2010,08,23,05,20,7.80
2010,08,23,05,21,7.80
2010,08,23,05,22,7.80
2010,08,23,05,23,7.80
2010,08,23,05,24,7.80
2010,08,23,05,25,7.80
2010,08,23,05,26,7.80
2010,08,23,05,27,7.80
2010,08,23,05,28,7.80
2010,08,23,05,29,7.80
2010,08,23,05,30,7.80
2010,08,23,05,31,7.80
2010,08,23,05,32,7.80
2010,08,23,05,33,7.80
2010,08,23,05,34,7.80
2010,08,23,05,35,7.80
2010,08,23,05,36,7.80
2010,08,23,05,37,7.80
2010,08,23,05,38,7.80
2010,08,23,05,39,7.80
2010,08,23,05,40,7.80
2010,08,23,05,41,7.80
2010,08,23,05,42,7.80
2010,08,23,05,43,7.80
2010,08,23,05,44,7.80
2010,08,23,05,45,7.80
2010,08,23,05,46,7.80
2010,08,23,05,47,7.80
2010,08,23,05,48,7.80
2010,08,23,05,49,7.80
2010,08,23,05,50,7.80
2010,08,23,05,51,7.80
2010,08,23,05,52,7.80
2010,08,23,05,53,7.70
2010,08,23,05,54,7.70
2010,08,23,05,55,7.70
2010,08,23,05,56,7.70
2010,08,23,05,57,7.70
2010,08,23,05,58,7.70
2010,08,23,05,59,7.70
2010,08,23,06,00,7.70
2010,08,23,06,01,7.70
2010,08,23,06,02,7.70
2010,08,23,06,03,7.70
2010,08,23,06,04,7.60
2010,08,23,06,05,7.60
2010,08,23,06,06,7.60
2010,08,23,06,07,7.60
2010,08,23,06,08,7.60
2010,08,23,06,09,7.60
2010,08,23,06,10,7.60
2010,08,23,06,11,7.60
2010,08,23,06,12,7.60
2010,08,23,06,13,7.60
2010,08,23,06,14,7.60
2010,08,23,06,15,7.50
2010,08,23,06,16,7.50
2010,08,23,06,17,7.50
2010,08,23,06,18,7.50
2010,08,23,06,19,7.50
2010,08,23,06,20,7.50
2010,08,23,06,21,7.50
2010,08,23,06,22,7.50
2010,08,23,06,23,7.50
2010,08,23,06,24,7.50
2010,08,23,06,25,7.50
2010,08,23,06,26,7.50
2010,08,23,06,27,7.50
2010,08,23,06,28,7.50
2010,08,23,06,29,7.50
2010,08,23,06,30,7.50
2010,08,23,06,31,7.50
2010,08,23,06,32,7.50
2010,08,23,06,33,7.50
2010,08,23,06,34,7.50
2010,08,23,06,35,7.50
2010,08,23,06,36,7.40
2010,08,23,06,37,7.40
2010,08,23,06,38,7.40
2010,08,23,06,39,7.40
2010,08,23,06,40,7.40
2010,08,23,06,41,7.40
2010,08,23,06,42,7.40
2010,08,23,06,43,7.30
2010,08,23,06,44,7.30
2010,08,23,06,45,7.30
2010,08,23,06,46,7.30
2010,08,23,06,47,7.30
2010,08,23,06,48,7.30
2010,08,23,06,49,7.30
2010,08,23,06,50,7.30
2010,08,23,06,51,7.30
2010,08,23,06,52,7.30
2010,08,23,06,53,7.30
2010,08,23,06,54,7.30
2010,08,23,06,55,7.30
2010,08,23,06,56,7.30
2010,08,23,06,57,7.30
2010,08,23,06,58,7.30
2010,08,23,06,59,7.30
2010,08,23,07,00,7.30
2010,08,23,07,01,7.30
2010,08,23,07,02,7.30
2010,08,23,07,03,7.30
2010,08,23,07,04,7.30
2010,08,23,07,05,7.40
2010,08,23,07,06,7.40
2010,08,23,07,07,7.40
2010,08,23,07,08,7.40
2010,08,23,07,09,7.40
2010,08,23,07,10,7.40
2010,08,23,07,11,7.40
2010,08,23,07,12,7.40
2010,08,23,07,13,7.50
2010,08,23,07,14,7.50
2010,08,23,07,15,7.50
2010,08,23,07,16,7.50
2010,08,23,07,17,7.50
2010,08,23,07,18,7.50
2010,08,23,07,19,7.50
2010,08,23,07,20,7.50
2010,08,23,07,21,7.60
2010,08,23,07,22,7.60
2010,08,23,07,23,7.60
2010,08,23,07,24,7.60
2010,08,23,07,25,7.60
2010,08,23,07,26,7.70
2010,08,23,07,27,7.70
2010,08,23,07,28,7.70
2010,08,23,07,29,7.70
2010,08,23,07,30,7.70
2010,08,23,07,31,7.80
2010,08,23,07,32,7.80
2010,08,23,07,33,7.80
2010,08,23,07,34,7.80
2010,08,23,07,35,7.80
2010,08,23,07,36,7.80
2010,08,23,07,37,7.80
2010,08,23,07,38,7.90
2010,08,23,07,39,7.90
2010,08,23,07,40,7.90
2010,08,23,07,41,7.90
2010,08,23,07,42,7.90
2010,08,23,07,43,8.00
2010,08,23,07,44,8.00
2010,08,23,07,45,8.00
2010,08,23,07,46,8.00
2010,08,23,07,47,8.00
2010,08,23,07,48,8.10
2010,08,23,07,49,8.10
2010,08,23,07,50,8.20
2010,08,23,07,51,8.20
2010,08,23,07,52,8.20
2010,08,23,07,53,8.30
2010,08,23,07,54,8.30
2010,08,23,07,55,8.40
2010,08,23,07,56,8.40
2010,08,23,07,57,8.50
2010,08,23,07,58,8.50
2010,08,23,07,59,8.60
2010,08,23,08,00,8.70
2010,08,23,08,01,8.70
2010,08,23,08,02,8.70
2010,08,23,08,03,8.80
2010,08,23,08,04,8.80
2010,08,23,08,05,8.90
2010,08,23,08,06,9.00
2010,08,23,08,07,9.00
2010,08,23,08,08,9.10
2010,08,23,08,09,9.20
2010,08,23,08,10,9.20
2010,08,23,08,11,9.30
2010,08,23,08,12,9.30
2010,08,23,08,13,9.40
2010,08,23,08,14,9.40
2010,08,23,08,15,9.50
2010,08,23,08,16,9.60
2010,08,23,08,17,9.70
2010,08,23,08,18,9.70
2010,08,23,08,19,9.70
2010,08,23,08,20,9.80
2010,08,23,08,21,9.80
2010,08,23,08,22,9.90
2010,08,23,08,23,9.90
2010,08,23,08,24,10.00
2010,08,23,08,25,10.10
2010,08,23,08,26,10.10
2010,08,23,08,27,10.20
2010,08,23,08,28,10.20
2010,08,23,08,29,10.30
2010,08,23,08,30,10.40
2010,08,23,08,31,10.40
2010,08,23,08,32,10.40
2010,08,23,08,33,10.60
2010,08,23,08,34,10.60
2010,08,23,08,35,10.70
2010,08,23,08,36,10.70
2010,08,23,08,37,10.80
2010,08,23,08,38,10.90
2010,08,23,08,39,10.90
2010,08,23,08,40,11.00
2010,08,23,08,41,11.10
2010,08,23,08,42,11.20
2010,08,23,08,43,11.30
2010,08,23,08,44,11.30
2010,08,23,08,45,11.40
2010,08,23,08,46,11.40
2010,08,23,08,47,11.50
2010,08,23,08,48,11.60
2010,08,23,08,49,11.60
2010,08,23,08,50,11.70
2010,08,23,08,51,11.80
2010,08,23,08,52,11.80
2010,08,23,08,53,11.80
2010,08,23,08,54,11.90
2010,08,23,08,55,12.00
2010,08,23,08,56,12.00
2010,08,23,08,57,12.10
2010,08,23,08,58,12.20
2010,08,23,08,59,12.30
2010,08,23,09,00,12.30
2010,08,23,09,01,12.40
2010,08,23,09,02,12.40
2010,08,23,09,03,12.50
2010,08,23,09,04,12.60
2010,08,23,09,05,12.60
2010,08,23,09,06,12.60
2010,08,23,09,07,12.70
2010,08,23,09,08,12.70
2010,08,23,09,09,12.80
2010,08,23,09,10,12.80
2010,08,23,09,11,12.90
2010,08,23,09,12,12.90
2010,08,23,09,13,13.00
2010,08,23,09,14,13.00
2010,08,23,09,15,13.10
2010,08,23,09,16,13.10
2010,08,23,09,17,13.20
2010,08,23,09,18,13.20
2010,08,23,09,19,13.20
2010,08,23,09,20,13.30
2010,08,23,09,21,13.30
2010,08,23,09,22,13.30
2010,08,23,09,23,13.40
2010,08,23,09,24,13.50
2010,08,23,09,25,13.50
2010,08,23,09,26,13.60
2010,08,23,09,27,13.70
2010,08,23,09,28,13.70
2010,08,23,09,29,13.80
2010,08,23,09,30,13.90
2010,08,23,09,31,13.90
2010,08,23,09,32,14.00
2010,08,23,09,33,14.00
2010,08,23,09,34,14.00
2010,08,23,09,35,14.10
2010,08,23,09,36,14.10
2010,08,23,09,37,14.20
2010,08,23,09,38,14.20
2010,08,23,09,39,14.20
2010,08,23,09,40,14.20
2010,08,23,09,41,14.30
2010,08,23,09,42,14.40
2010,08,23,09,43,14.50
2010,08,23,09,44,14.50
2010,08,23,09,45,14.60
2010,08,23,09,46,14.60
2010,08,23,09,47,14.70
2010,08,23,09,48,14.70
2010,08,23,09,49,14.80
2010,08,23,09,50,14.80
2010,08,23,09,51,14.80
2010,08,23,09,52,14.90
2010,08,23,09,53,14.90
2010,08,23,09,54,15.00
2010,08,23,09,55,15.00
2010,08,23,09,56,15.10
2010,08,23,09,57,15.10
2010,08,23,09,58,15.10
2010,08,23,09,59,15.10
2010,08,23,10,00,15.20
2010,08,23,10,01,15.20
2010,08,23,10,02,15.30
2010,08,23,10,03,15.30
2010,08,23,10,04,15.30
2010,08,23,10,05,15.30
2010,08,23,10,06,15.30
2010,08,23,10,07,15.30
2010,08,23,10,08,15.30
2010,08,23,10,09,15.30
2010,08,23,10,10,15.30
2010,08,23,10,11,15.30
2010,08,23,10,12,15.30
2010,08,23,10,13,15.30
2010,08,23,10,14,15.40
2010,08,23,10,15,15.40
2010,08,23,10,16,15.40
2010,08,23,10,17,15.40
2010,08,23,10,18,15.40
2010,08,23,10,19,15.50
2010,08,23,10,20,15.50
2010,08,23,10,21,15.50
2010,08,23,10,22,15.50
2010,08,23,10,23,15.50
2010,08,23,10,24,15.60
2010,08,23,10,25,15.60
2010,08,23,10,26,15.60
2010,08,23,10,27,15.70
2010,08,23,10,28,15.70
2010,08,23,10,29,15.80
2010,08,23,10,30,15.80
2010,08,23,10,31,15.80
2010,08,23,10,32,15.80
2010,08,23,10,33,15.80
2010,08,23,10,34,15.80
2010,08,23,10,35,15.80
2010,08,23,10,36,15.80
2010,08,23,10,37,15.80
2010,08,23,10,38,15.80
2010,08,23,10,39,15.80
2010,08,23,10,40,15.90
2010,08,23,10,41,15.90
2010,08,23,10,42,15.90
2010,08,23,10,43,15.90
2010,08,23,10,44,15.90
2010,08,23,10,45,15.90
2010,08,23,10,46,16.00
2010,08,23,10,47,16.10
2010,08,23,10,48,16.10
2010,08,23,10,49,16.10
2010,08,23,10,50,16.20
2010,08,23,10,51,16.20
2010,08,23,10,52,16.20
2010,08,23,10,53,16.20
2010,08,23,10,54,16.20
2010,08,23,10,55,16.20
2010,08,23,10,56,16.20
2010,08,23,10,57,16.20
2010,08,23,10,58,16.20
2010,08,23,10,59,16.30
2010,08,23,11,00,16.30
2010,08,23,11,01,16.40
2010,08,23,11,02,16.40
2010,08,23,11,03,16.40
2010,08,23,11,04,16.40
2010,08,23,11,05,16.40
2010,08,23,11,06,16.40
2010,08,23,11,07,16.40
2010,08,23,11,08,16.60
2010,08,23,11,09,16.60
2010,08,23,11,10,16.60
2010,08,23,11,11,16.60
2010,08,23,11,12,16.70
2010,08,23,11,13,16.70
2010,08,23,11,14,16.70
2010,08,23,11,15,16.70
2010,08,23,11,16,16.70
2010,08,23,11,17,16.70
2010,08,23,11,18,16.70
2010,08,23,11,19,16.70
2010,08,23,11,20,16.70
2010,08,23,11,21,16.70
2010,08,23,11,22,16.70
2010,08,23,11,23,16.70
2010,08,23,11,24,16.70
2010,08,23,11,25,16.70
2010,08,23,11,26,16.70
2010,08,23,11,27,16.70
2010,08,23,11,28,16.70
2010,08,23,11,29,16.70
2010,08,23,11,30,16.70
2010,08,23,11,31,16.70
2010,08,23,11,32,16.70
2010,08,23,11,33,16.80
2010,08,23,11,34,16.80
2010,08,23,11,35,16.80
2010,08,23,11,36,16.90
2010,08,23,11,37,16.90
2010,08,23,11,38,16.90
2010,08,23,11,39,16.90
2010,08,23,11,40,16.90
2010,08,23,11,41,16.90
2010,08,23,11,42,16.90
2010,08,23,11,43,16.90
2010,08,23,11,44,16.90
2010,08,23,11,45,16.90
2010,08,23,11,46,16.90
2010,08,23,11,47,17.00
2010,08,23,11,48,17.00
2010,08,23,11,49,17.00
2010,08,23,11,50,17.00
2010,08,23,11,51,17.00
2010,08,23,11,52,17.00
2010,08,23,11,53,17.10
2010,08,23,11,54,17.10
2010,08,23,11,55,17.20
2010,08,23,11,56,17.20
2010,08,23,11,57,17.20
2010,08,23,11,58,17.30
2010,08,23,11,59,17.30
2010,08,23,12,00,17.30
2010,08,23,12,01,17.30
2010,08,23,12,02,17.30
2010,08,23,12,03,17.30
2010,08,23,12,04,17.30
2010,08,23,12,05,17.30
2010,08,23,12,06,17.30
2010,08,23,12,07,17.30
2010,08,23,12,08,17.30
2010,08,23,12,09,17.30
2010,08,23,12,10,17.30
2010,08,23,12,11,17.40
2010,08,23,12,12,17.40
2010,08,23,12,13,17.40
2010,08,23,12,14,17.40
2010,08,23,12,15,17.40
2010,08,23,12,16,17.40
2010,08,23,12,17,17.40
2010,08,23,12,18,17.40
2010,08,23,12,19,17.40
2010,08,23,12,20,17.50
2010,08,23,12,21,17.50
2010,08,23,12,22,17.40
2010,08,23,12,23,17.40
2010,08,23,12,24,17.40
2010,08,23,12,25,17.40
2010,08,23,12,26,17.40
2010,08,23,12,27,17.40
2010,08,23,12,28,17.50
2010,08,23,12,29,17.50
2010,08,23,12,30,17.50
2010,08,23,12,31,17.50
2010,08,23,12,32,17.60
2010,08,23,12,33,17.60
2010,08,23,12,34,17.60
2010,08,23,12,35,17.60
2010,08,23,12,36,17.70
2010,08,23,12,37,17.70
2010,08,23,12,38,17.70
2010,08,23,12,39,17.70
2010,08,23,12,40,17.70
2010,08,23,12,41,17.70
2010,08,23,12,42,17.80
2010,08,23,12,43,17.80
2010,08,23,12,44,17.90
2010,08,23,12,45,17.90
2010,08,23,12,46,17.90
2010,08,23,12,47,17.90
2010,08,23,12,48,18.00
2010,08,23,12,49,18.10
2010,08,23,12,50,18.10
2010,08,23,12,51,18.20
2010,08,23,12,52,18.20
2010,08,23,12,53,18.20
2010,08,23,12,54,18.30
2010,08,23,12,55,18.40
2010,08,23,12,56,18.50
2010,08,23,12,57,18.60
2010,08,23,12,58,18.60
2010,08,23,12,59,18.70
2010,08,23,13,00,18.70
2010,08,23,13,01,18.80
2010,08,23,13,02,18.80
2010,08,23,13,03,18.90
2010,08,23,13,04,18.90
2010,08,23,13,05,18.90
2010,08,23,13,06,18.90
2010,08,23,13,07,18.90
2010,08,23,13,08,18.90
2010,08,23,13,09,18.90
2010,08,23,13,10,18.90
2010,08,23,13,11,18.90
2010,08,23,13,12,18.90
2010,08,23,13,13,18.90
2010,08,23,13,14,18.90
2010,08,23,13,15,19.00
2010,08,23,13,16,19.10
2010,08,23,13,17,19.10
2010,08,23,13,18,19.10
2010,08,23,13,19,19.20
2010,08,23,13,20,19.30
2010,08,23,13,21,19.30
2010,08,23,13,22,19.30
2010,08,23,13,23,19.30
2010,08,23,13,24,19.30
2010,08,23,13,25,19.30
2010,08,23,13,26,19.40
2010,08,23,13,27,19.40
2010,08,23,13,28,19.50
2010,08,23,13,29,19.50
2010,08,23,13,30,19.50
2010,08,23,13,31,19.60
2010,08,23,13,32,19.60
2010,08,23,13,33,19.70
2010,08,23,13,34,19.70
2010,08,23,13,35,19.70
2010,08,23,13,36,19.70
2010,08,23,13,37,19.70
2010,08,23,13,38,19.80
2010,08,23,13,39,19.80
2010,08,23,13,40,19.80
2010,08,23,13,41,19.80
2010,08,23,13,42,19.80
2010,08,23,13,43,19.80
2010,08,23,13,44,19.70
2010,08,23,13,45,19.70
2010,08,23,13,46,19.70
2010,08,23,13,47,19.80
2010,08,23,13,48,19.80
2010,08,23,13,49,19.90
2010,08,23,13,50,20.00
2010,08,23,13,51,20.10
2010,08,23,13,52,20.10
2010,08,23,13,53,20.10
2010,08,23,13,54,20.10
2010,08,23,13,55,20.00
2010,08,23,13,56,19.90
2010,08,23,13,57,19.90
2010,08,23,13,58,19.90
2010,08,23,13,59,19.90
2010,08,23,14,00,19.90
2010,08,23,14,01,20.10
2010,08,23,14,02,20.00
2010,08,23,14,03,19.90
2010,08,23,14,04,19.90
2010,08,23,14,05,19.90
2010,08,23,14,06,19.90
2010,08,23,14,07,19.90
2010,08,23,14,08,19.90
2010,08,23,14,09,20.00
2010,08,23,14,10,20.10
2010,08,23,14,11,20.10
2010,08,23,14,12,20.20
2010,08,23,14,13,20.20
2010,08,23,14,14,20.30
2010,08,23,14,15,20.40
2010,08,23,14,16,20.40
2010,08,23,14,17,20.40
2010,08,23,14,18,20.40
2010,08,23,14,19,20.40
2010,08,23,14,20,20.40
2010,08,23,14,21,20.40
2010,08,23,14,22,20.40
2010,08,23,14,23,20.40
2010,08,23,14,24,20.40
2010,08,23,14,25,20.40
2010,08,23,14,26,20.30
2010,08,23,14,27,20.30
2010,08,23,14,28,20.20
2010,08,23,14,29,20.20
2010,08,23,14,30,20.20
2010,08,23,14,31,20.20
2010,08,23,14,32,20.20
2010,08,23,14,33,20.20
2010,08,23,14,34,20.20
2010,08,23,14,35,20.20
2010,08,23,14,36,20.20
2010,08,23,14,37,20.30
2010,08,23,14,38,20.40
2010,08,23,14,39,20.50
2010,08,23,14,40,20.50
2010,08,23,14,41,20.50
2010,08,23,14,42,20.60
2010,08,23,14,43,20.70
2010,08,23,14,44,20.80
2010,08,23,14,45,20.80
2010,08,23,14,46,20.90
2010,08,23,14,47,21.00
2010,08,23,14,48,21.00
2010,08,23,14,49,21.00
2010,08,23,14,50,21.00
2010,08,23,14,51,21.00
2010,08,23,14,52,21.00
2010,08,23,14,53,21.10
2010,08,23,14,54,21.10
2010,08,23,14,55,21.10
2010,08,23,14,56,21.10
2010,08,23,14,57,21.20
2010,08,23,14,58,21.20
2010,08,23,14,59,21.20
2010,08,23,15,00,21.20
2010,08,23,15,01,21.20
2010,08,23,15,02,21.10
2010,08,23,15,03,21.00
2010,08,23,15,04,21.00
2010,08,23,15,05,21.10
2010,08,23,15,06,21.10
2010,08,23,15,07,21.10
2010,08,23,15,08,21.10
2010,08,23,15,09,21.10
2010,08,23,15,10,21.10
2010,08,23,15,11,21.10
2010,08,23,15,12,21.10
2010,08,23,15,13,21.20
2010,08,23,15,14,21.10
2010,08,23,15,15,21.10
2010,08,23,15,16,21.10
2010,08,23,15,17,21.10
2010,08,23,15,18,21.10
2010,08,23,15,19,21.20
2010,08,23,15,20,21.30
2010,08,23,15,21,21.30
2010,08,23,15,22,21.30
2010,08,23,15,23,21.30
2010,08,23,15,24,21.20
2010,08,23,15,25,21.10
2010,08,23,15,26,21.10
2010,08,23,15,27,21.10
2010,08,23,15,28,21.10
2010,08,23,15,29,21.00
2010,08,23,15,30,21.00
2010,08,23,15,31,21.00
2010,08,23,15,32,21.00
2010,08,23,15,33,21.00
2010,08,23,15,34,20.90
2010,08,23,15,35,20.90
2010,08,23,15,36,20.90
2010,08,23,15,37,20.80
2010,08,23,15,38,20.80
2010,08,23,15,39,20.80
2010,08,23,15,40,20.70
2010,08,23,15,41,20.70
2010,08,23,15,42,20.70
2010,08,23,15,43,20.60
2010,08,23,15,44,20.60
2010,08,23,15,45,20.60
2010,08,23,15,46,20.60
2010,08,23,15,47,20.60
2010,08,23,15,48,20.60
2010,08,23,15,49,20.50
2010,08,23,15,50,20.50
2010,08,23,15,51,20.50
2010,08,23,15,52,20.40
2010,08,23,15,53,20.30
2010,08,23,15,54,20.20
2010,08,23,15,55,20.20
2010,08,23,15,56,20.20
2010,08,23,15,57,20.20
2010,08,23,15,58,20.10
2010,08,23,15,59,20.10
2010,08,23,16,00,20.10
2010,08,23,16,01,20.10
2010,08,23,16,02,20.10
2010,08,23,16,03,20.20
2010,08,23,16,04,20.20
2010,08,23,16,05,20.10
2010,08,23,16,06,20.00
2010,08,23,16,07,19.90
2010,08,23,16,08,19.80
2010,08,23,16,09,19.80
2010,08,23,16,10,19.80
2010,08,23,16,11,19.80
2010,08,23,16,12,19.80
2010,08,23,16,13,19.80
2010,08,23,16,14,19.80
2010,08,23,16,15,19.80
2010,08,23,16,16,19.80
2010,08,23,16,17,19.70
2010,08,23,16,18,19.70
2010,08,23,16,19,19.70
2010,08,23,16,20,19.60
2010,08,23,16,21,19.60
2010,08,23,16,22,19.60
2010,08,23,16,23,19.60
2010,08,23,16,24,19.60
2010,08,23,16,25,19.50
2010,08,23,16,26,19.50
2010,08,23,16,27,19.50
2010,08,23,16,28,19.50
2010,08,23,16,29,19.50
2010,08,23,16,30,19.60
2010,08,23,16,31,19.60
2010,08,23,16,32,19.60
2010,08,23,16,33,19.60
2010,08,23,16,34,19.70
2010,08,23,16,35,19.70
2010,08,23,16,36,19.70
2010,08,23,16,37,19.70
2010,08,23,16,38,19.70
2010,08,23,16,39,19.70
2010,08,23,16,40,19.70
2010,08,23,16,41,19.70
2010,08,23,16,42,19.70
2010,08,23,16,43,19.70
2010,08,23,16,44,19.70
2010,08,23,16,45,19.70
2010,08,23,16,46,19.80
2010,08,23,16,47,19.80
2010,08,23,16,48,19.80
2010,08,23,16,49,19.80
2010,08,23,16,50,19.80
2010,08,23,16,51,19.80
2010,08,23,16,52,19.80
2010,08,23,16,53,19.80
2010,08,23,16,54,19.80
2010,08,23,16,55,19.70
2010,08,23,16,56,19.70
2010,08,23,16,57,19.70
2010,08,23,16,58,19.60
2010,08,23,16,59,19.60
2010,08,23,17,00,19.60
2010,08,23,17,01,19.60
2010,08,23,17,02,19.60
2010,08,23,17,03,19.60
2010,08,23,17,04,19.60
2010,08,23,17,05,19.60
2010,08,23,17,06,19.60
2010,08,23,17,07,19.70
2010,08,23,17,08,19.70
2010,08,23,17,09,19.60
2010,08,23,17,10,19.60
2010,08,23,17,11,19.60
2010,08,23,17,12,19.60
2010,08,23,17,13,19.60
2010,08,23,17,14,19.60
2010,08,23,17,15,19.60
2010,08,23,17,16,19.50
2010,08,23,17,17,19.50
2010,08,23,17,18,19.50
2010,08,23,17,19,19.50
2010,08,23,17,20,19.50
2010,08,23,17,21,19.40
2010,08,23,17,22,19.40
2010,08,23,17,23,19.40
2010,08,23,17,24,19.40
2010,08,23,17,25,19.40
2010,08,23,17,26,19.40
2010,08,23,17,27,19.40
2010,08,23,17,28,19.40
2010,08,23,17,29,19.40
2010,08,23,17,30,19.40
2010,08,23,17,31,19.40
2010,08,23,17,32,19.40
2010,08,23,17,33,19.40
2010,08,23,17,34,19.50
2010,08,23,17,35,19.50
2010,08,23,17,36,19.50